www.pogodaiklimat.ru

АРХИВ ПОГОДЫ в Сиэтле

Время (UTC), дата Ветер
(напр.,м/с)
 
Видим.   Явления Облачность Т
(С)
Тd
(С)
f
(%)
Тe
(С)
Тes
(С)
Комфортность

P
(гПа)

Po
(гПа)
Тmin
(С)
Tmax
(С)
R
(мм)
SD
(см)
18:53 22.06 З   16 км    10/10 600 м  +17.2  +10.6  65  +17  +17    1022.9  1006.6         
19:53 22.06 ЮЗ  4
{7} 
16 км    8/8 600 м  +18.0  +11.0  64  +18  +20    1022.6  1006.2         
20:53 22.06 нст  16 км    8/5 600 м
[средняя] 
+19.0  +11.0  60  +20  +24    1022.0  1005.6         
21:53 22.06 ЮЗ  16 км    8/8 1050 м
[средняя] 
+18.9  +10.6  59  +19  +21    1021.7  1005.6         
22:53 22.06 нст  16 км    8/8 990 м
[средняя] 
+19.0  +11.0  60  +21  +23  комфорт  1021.0  1004.9  +15.6       
23:53 22.06 нст  16 км    10/10 1080 м  +20.0  +10.0  53  +22  +22  комфорт  1020.7  1004.6         
00:53 23.06 штиль  16 км    10/10 1170 м  +20.0  +10.0  53  +21  +21  комфорт  1020.2  1003.9         
01:53 23.06 ЮЗ  16 км    10/10 1020 м  +19.0  +11.0  60  +20  +20    1020.5  1004.2         
02:53 23.06 З  16 км    10/8 1440 м
[средняя] 
+16.1  +11.1  72  +15  +15    1020.5  1004.2         
03:53 23.06 З  16 км    10/10 1020 м  +14.4  +10.6  78  +14  +14    1021.0  1004.6         
04:10 23.06 штиль  16 км    10/10 840 м  +14.4  +11.1  81  +14  +14      1004.6         
04:53 23.06 нст  16 км    10/10 630 м  +14.0  +11.0  82  +14  +14    1021.0  1004.9  +14.4  +20.6     
05:53 23.06 СВ  16 км    10/10 660 м  +15.0  +11.7  81  +14  +14    1020.9  1004.6         
06:16 23.06 СВ  14 км    10/10 210 м  +15.0  +11.7  81  +13  +13      1004.6         
06:53 23.06 СВ  10 км  слабый дождь, дымка  10/10 210 м  +14.4  +12.2  87  +13  +13    1020.9  1004.6         
07:04 23.06 СВ  10 км  слабый дождь, дымка  10/10 180 м  +13.9  +12.2  89  +12  +12      1004.6         
07:23 23.06 СВ  6 км  слабый дождь, дымка  10/10 120 м  +14.0  +13.0  94  +12  +12      1004.6         
07:48 23.06 СВ  2 км  слабый дождь, дымка  10/10 90 м  +14.0  +13.0  94  +12  +12      1004.6         
07:53 23.06 СВ  2 км  слабый дождь, дымка  10/10 90 м  +13.9  +12.8  93  +12  +12    1020.8  1004.6      0.3   
08:21 23.06 Ю  2 км  слабый дождь, дымка  10/10 150 м  +14.0  +13.0  94  +13  +13      1004.6         
08:32 23.06 Ю  3 км  дымка  10/10 150 м  +13.0  +12.0  94  +11  +11      1004.6         
08:53 23.06 ЮВ  3 км  слабый дождь, дымка  10/10 210 м  +13.3  +12.8  97  +13  +13    1021.3  1004.9         
09:06 23.06 ЮВ  3 км  слабый дождь, дымка  10/10 150 м  +13.0  +12.0  94  +12  +12      1005.2         
09:53 23.06 В  3 км  слабый дождь, дымка  10/10 150 м  +13.9  +12.8  93  +12  +12    1021.5  1005.2         
09:58 23.06 В  3 км  слабый дождь, дымка  10/10 120 м  +14.0  +13.0  94  +12  +12      1005.2         
10:43 23.06 В  8 км  дымка  10/10 120 м  +13.9  +12.2  89  +12  +12      1005.2         
10:53 23.06 В  8 км  дымка  10/10 180 м  +13.3  +12.2  93  +11  +11    1021.5  1005.2  +13.3  +15.0     
11:36 23.06 В  6 км  дымка  10/10 150 м  +13.9  +12.2  89  +13  +13      1005.2         
11:53 23.06 В  16 км    10/10 150 м  +13.0  +12.0  94  +11  +11    1021.6  1005.2         
12:53 23.06 В  16 км    10/10 270 м  +13.9  +11.7  87  +13  +13    1021.9  1005.6         
13:37 23.06 В  16 км    10/10 360 м  +13.9  +11.7  87  +12  +12      1005.9         
13:53 23.06 В  16 км    10/10 360 м  +13.9  +11.7  87  +13  +13    1022.3  1005.9         
14:53 23.06 СВ  16 км    10/10 390 м  +14.4  +11.1  81  +14  +14    1022.7  1006.2         
15:53 23.06 С  16 км    10/10 360 м  +15.6  +11.1  75  +15  +15    1023.0  1006.6         
16:53 23.06 СВ  16 км    10/10 360 м  +15.6  +11.1  75  +15  +15    1023.4  1006.9         
17:39 23.06 нст  16 км    10/10 450 м  +16.7  +11.7  72  +17  +17      1007.2         
17:53 23.06 нст  16 км    10/10 450 м  +16.7  +11.7  72  +17  +17    1023.5  1007.2         
18:53 23.06 З  16 км    10/10 510 м  +17.2  +11.7  70  +17  +17    1023.5  1007.2         
19:53 23.06 З  16 км    8/8 660 м  +17.8  +11.7  67  +18  +20    1023.3  1006.9         
20:53 23.06 СВ  16 км    8/8 750 м  +20.0  +12.2  61  +22  +25  комфорт  1023.1  1006.9         
21:05 23.06 ЮЗ  16 км    8/8 750 м  +19.4  +12.2  63  +21  +23  комфорт    1006.9         
21:53 23.06 З  16 км    8/8 900 м  +21.1  +11.7  55  +23  +25  комфорт  1022.8  1006.6         
22:53 23.06 СЗ  16 км    5/5 1020 м  +21.0  +11.0  53  +23  +27  комфорт  1022.7  1006.2  +15.6       
23:53 23.06 З  16 км    5/5 1170 м
[средняя] 
+21.7  +10.0  47  +23  +26  комфорт  1022.1  1005.9         
00:53 24.06 З  16 км    5/2 1170 м
[верхняя] 
+21.7  +10.0  47  +23  +25  комфорт  1021.7  1005.6         
01:53 24.06 З  16 км    2/2 1170 м
[верхняя] 
+21.0  +11.0  53  +23  +24  комфорт  1021.4  1005.2         
02:53 24.06 З  16 км    2/2 1080 м
[верхняя] 
+18.9  +11.1  61  +20  +21    1021.3  1004.9         
03:53 24.06 С  16 км    ясно  +18.3  +11.1  63  +19  +19    1021.4  1005.2         

 

Местоположение метеостанции Seattle-Tacoma International Airport: широта 47.4447 долгота -122.3136 высота над уровнем моря 130 м.

В архиве по умолчанию представлена погода в Сиэтле за последние 1-2 суток. Обновление информации о фактической погоде в базе происходит ежечасно! Архивные данные за месяц целиком и за предыдущие месяцы Вы можете получить, выбрав интересующий диапазон дат из раскрывающегося списка и нажав кнопку "Ввод!".

Внимание! Архив погоды МЕТАР в базе сайта в настоящее время начинается c 1 января 2013 г. Нет смысла пытаться выбрать более раннюю дату.

Внимание! Время в таблицах - всемирное. Для получения местного времени необходимо прибавить поправку, которая в Сиэтле равна -8 ч.

Ветер - указаны скорость ветра в м/с и направление, откуда дует ветер: С - северный, СВ - северо-восточный, В - восточный, ЮВ - юго-восточный, Ю - южный, ЮЗ - юго-западный, З - западный, СЗ - северо-западный.
Видимость - горизонтальная дальность видимости в метрах или километрах. При видимости от 1 до 10 км при отсутствии осадков обычно наблюдается дымка, при ухудшении видимости до 1 км и менее - туман. В сухую погоду видимость может ухудшаться дымом, пылью или мглою.
Атмосферные явления - указаны явления, наблюдавшиеся в указанный момент времени.
Облачность - указаны через наклонную черту верхняя и нижняя облачность в баллах и высота нижней границы облаков в метрах. Внимание: облачность, как и прочие метеорологические величины в США измеряются автоматическими метеостанциями. Указанные значения в баллах носят условный характер и показывают процент времени, в течение которого, в среднем, лазерный луч высотомера отражался от облаков обратно.
T - Температура воздуха - температура, измеренная на высоте 2 м над землей.
Td - Температура точки росы - температура, при понижении до которой содержащийся в воздухе водяной пар достигнет насыщения.
f - Относительная влажность воздуха - влажноcть воздуха, измеренная на высоте 2 м над землей.
Te - Эффективная температура - температура, которую ощущает одетый по сезону человек в тени. Характеристика душности погоды. При расчете учитывается влияние влажности воздуха и скорости ветра на теплоощущения человека.
Tes - Эффективная температура на солнце - температура, которую ощущает человек, с поправкой на солнечный нагрев. Характеристика знойности погоды. Зависит от высоты солнца над горизонтом, облачности и скорости ветра. Ночью, в пасмурную погоду, а также при ветре 12 м/с и более поправка равна нулю.
P - Атмосферное давление - приведенное к уровню моря атмосферное давление.
Po - Атмосферное давление - измеренное на уровне метеостанции атмосферное давление.
Tmin - Минимальная температура - минимум температуры воздуха на высоте 2 м над землей.
Tmax - Максимальная температура - максимум температуры воздуха на высоте 2 м над землей.
R - Количество осадков - Количество выпавших осадков за 3 или 6 часов, мм.
SD - Снежный покров - Высота снежного покрова, см.